Location: ??? ?????
(30.6482°N, 60.5850°E)
Time: 07:26:05
(UTC+00:00)

Nadezhda 4 Rocket - Pass Details

Date: 09 April 2020
Orbit: 949 x 993 km, 82.9° (Epoch: 25 May)

Event Time Altitude Azimuth Distance (km) Brightness Sun altitude
Exits shadow 23:49:14 45° 237° (WSW) 1,332 4.2 -22.7°
Maximum altitude 23:50:40 53° 278° (W) 1,200 4.1 -22.4°
Drops below altitude 10° 23:56:51 10° 355° (N) 2,760 6.6 -21.2°
Sets 23:59:28 0° 360° (N) 3,710 7.3 -20.7°
